TimeMDT,TemperatureF,Dew PointF,Humidity,Sea Level PressureIn,VisibilityMPH,Wind Direction,Wind SpeedMPH,Gust SpeedMPH,PrecipitationIn,Events,Conditions,WindDirDegrees,DateUTC
12:55 AM,41.0,35.1,79,30.00,10.0,WNW,10.4,-,N/A,,Clear,290,2012-10-31 06:55:00
1:55 AM,39.0,34.0,82,29.99,10.0,WNW,8.1,-,N/A,,Clear,290,2012-10-31 07:55:00
2:55 AM,39.0,35.1,86,29.99,10.0,West,9.2,-,N/A,,Clear,280,2012-10-31 08:55:00
3:55 AM,37.9,34.0,86,29.98,10.0,West,8.1,-,N/A,,Clear,280,2012-10-31 09:55:00
4:55 AM,35.1,33.1,92,29.98,10.0,West,6.9,-,N/A,,Clear,270,2012-10-31 10:55:00
5:55 AM,37.0,34.0,89,30.00,10.0,West,3.5,-,N/A,,Clear,280,2012-10-31 11:55:00
6:55 AM,33.1,32.0,96,30.01,10.0,Calm,Calm,-,N/A,,Clear,0,2012-10-31 12:55:00
7:55 AM,35.1,33.1,92,30.02,10.0,Calm,Calm,-,N/A,,Clear,0,2012-10-31 13:55:00
8:55 AM,43.0,39.0,86,30.01,10.0,WSW,4.6,-,N/A,,Scattered Clouds,240,2012-10-31 14:55:00
9:55 AM,50.0,41.0,71,30.01,10.0,WSW,6.9,-,N/A,,Mostly Cloudy,240,2012-10-31 15:55:00
10:55 AM,57.9,43.0,58,29.99,10.0,WSW,8.1,-,N/A,,Clear,250,2012-10-31 16:55:00
11:55 AM,66.9,42.1,40,29.98,10.0,West,11.5,-,N/A,,Clear,260,2012-10-31 17:55:00
12:55 PM,72.0,39.0,30,29.94,10.0,WSW,8.1,-,N/A,,Clear,240,2012-10-31 18:55:00
1:55 PM,73.9,37.0,26,29.93,10.0,WSW,13.8,-,N/A,,Clear,250,2012-10-31 19:55:00
2:55 PM,73.9,33.1,22,29.92,10.0,NW,15.0,20.7,N/A,,Clear,310,2012-10-31 20:55:00
3:55 PM,73.0,35.1,25,29.93,10.0,NW,18.4,-,N/A,,Clear,320,2012-10-31 21:55:00
4:55 PM,70.0,35.1,28,29.95,10.0,NNW,11.5,-,N/A,,Clear,340,2012-10-31 22:55:00
5:55 PM,62.1,36.0,38,29.99,10.0,North,17.3,-,N/A,,Clear,350,2012-10-31 23:55:00
6:55 PM,57.0,37.9,49,30.03,10.0,North,16.1,-,N/A,,Clear,360,2012-11-01 00:55:00
7:55 PM,51.1,37.9,61,30.05,10.0,North,11.5,-,N/A,,Clear,360,2012-11-01 01:55:00
8:55 PM,48.0,37.9,68,30.07,10.0,SE,4.6,-,N/A,,Clear,130,2012-11-01 02:55:00
9:55 PM,45.0,37.9,76,30.07,10.0,Calm,Calm,-,N/A,,Clear,0,2012-11-01 03:55:00
10:55 PM,42.1,37.9,85,30.08,10.0,NNW,4.6,-,N/A,,Clear,340,2012-11-01 04:55:00
11:47 PM,39.2,37.4,93,30.09,6.0,NW,4.6,-,N/A,,Mostly Cloudy,310,2012-11-01 05:47:00
11:55 PM,39.0,37.0,93,30.09,6.0,North,5.8,-,N/A,,Mostly Cloudy,360,2012-11-01 05:55:00